[[{"header":{"parameterUnit":"m.s-1","parameterCategory":1,"la1":30.2991,"la2":30.254,"lo1":-89.0895,"lo2":-89.0444,"dy":0.0017,"dx":0.0017,"nx":28,"ny":28,"refTime":"2025-03-26T03:00:00:Z","depth":0,"parameterNumber":2,"parameterNumberName":"U-component_of_WINDS"},"data":[0,0,0,0,0,0,0,0,0,0,0,0,0,0,0,0,0,0,0,0,0,0,0,0,0,0,0,0,0,0,0,0,0,0,0,0,0,0,0,0,0,0,0,0,0,0,0,0,0,0,0,0,0,0,0,0,0,0,0.1544,0.1545,0,0.1627,0.1628,0.1629,0.1666,0.1665,0.1665,0.1665,0.1754,0.1756,0.1759,0,0,0,0,0,0,0,0,0,0,0,0,0,0.1418,0.142,0.1544,0.1545,0.1546,0.1627,0.1628,0.163,0.1666,0.1665,0.1665,0.1665,0.1753,0.1756,0.1759,0,0,0,0,0,0,0,0,0,0,0,0,0,0.1484,0.142,0.1544,0.1574,0.1577,0.1627,0.1629,0.163,0.1666,0.1665,0.1665,0.1665,0.1752,0.1756,0.1759,0.1787,0,0,0.1771,0.1772,0,0,0,0,0,0,0,0,0.148,0.1489,0.1568,0.1572,0.1576,0.1636,0.1617,0.1683,0.1666,0.1632,0.1665,0.1665,0.1715,0.1722,0.1738,0.1791,0.1795,0.1771,0.1773,0.1775,0.1776,0,0,0,0,0,0,0,0.1475,0.1485,0.1577,0.1569,0.1574,0.1584,0.1593,0.1629,0.1674,0.1635,0.1638,0.1647,0.1717,0.1734,0.174,0.1796,0.1771,0.1774,0.1776,0.1778,0.1876,0.1876,0,0,0,0,0,0,0.1466,0.1481,0.1574,0.158,0.1526,0.1586,0.1596,0.1617,0.1673,0.1682,0.1647,0.1648,0.1728,0.1736,0.1743,0.1779,0.1775,0.1778,0.178,0.1875,0.1876,0.1876,0,0,0,0,0,0,0.1463,0.1474,0.1571,0.1531,0.1544,0.1588,0.1611,0.1618,0.1636,0.1683,0.1691,0.1656,0.1728,0.1738,0.1775,0.1783,0.178,0.1783,0.1875,0.1875,0.1876,0.1851,0,0,0,0,0,0,0.1459,0.1472,0.1483,0.1531,0.1546,0.1601,0.1612,0.162,0.1642,0.1644,0.1694,0.1702,0.1729,0.177,0.1779,0.1788,0.1786,0.1874,0.1875,0.1876,0.1852,0.1851,0.185,0,0,0,0,0,0.1454,0.1473,0.1483,0.1494,0.156,0.1601,0.161,0.164,0.1642,0.1653,0.1683,0.17,0.178,0.1773,0.1784,0.1794,0.1874,0.1875,0.1876,0.1852,0.1851,0.185,0,0,0,0,0,0,0.1425,0.148,0.1492,0.1526,0.1559,0.1607,0.1622,0.1638,0.1671,0.1672,0.1709,0.172,0.1754,0.1778,0.1769,0.1824,0.1829,0.1832,0.1807,0.1806,0.1806,0.1799,0.1789,0,0,0,0,0,0.1423,0.1451,0.1497,0.1523,0.1539,0.1577,0.1597,0.1617,0.1652,0.1666,0.1699,0.1734,0.1767,0.1788,0.1821,0.1855,0.1866,0.1867,0.1867,0.1866,0.1868,0.1888,0.1889,0.1879,0.1879,0.1879,0,0,0.1418,0.1451,0.1467,0.1518,0.1546,0.1575,0.1589,0.1619,0.1641,0.1671,0.1708,0.1733,0.1774,0.181,0.1827,0.1831,0.1874,0.1867,0.1866,0.1869,0.1889,0.189,0.1891,0.1879,0.1879,0.1879,0,0,0.1425,0.1452,0.1477,0.1504,0.1545,0.1571,0.1576,0.1623,0.164,0.1677,0.1701,0.1728,0.1784,0.1812,0.1834,0.185,0.1867,0.186,0.1857,0.1876,0.1876,0.1877,0.1884,0.1885,0.1862,0.1862,0.1862,0,0.1414,0.1458,0.1488,0.1517,0.1539,0.1566,0.1592,0.1617,0.1667,0.1682,0.1685,0.1756,0.1786,0.1828,0.1832,0.1849,0.1857,0.1855,0.1874,0.1875,0.1876,0.1883,0.1885,0.1861,0.1861,0.1861,0.1861,0,0.1443,0.1473,0.1488,0.1535,0.1559,0.1586,0.1621,0.1641,0.1659,0.1685,0.1722,0.1758,0.1799,0.1811,0.1829,0.1856,0.1857,0.1866,0.1872,0.1876,0.1882,0.1885,0.1859,0.186,0.186,0.186,0,0,0.1434,0.1496,0.1502,0.1523,0.157,0.1594,0.1623,0.1662,0.1679,0.1712,0.1738,0.1784,0.1793,0.1817,0.1839,0.1855,0.1866,0.1863,0.1865,0.1863,0.1899,0.1892,0.1894,0.1877,0.1878,0.1878,0.1895,0,0.1447,0.1499,0.1527,0.1567,0.1595,0.1621,0.1646,0.1678,0.1702,0.1731,0.1758,0.179,0.1799,0.1814,0.1831,0.1861,0.1874,0.186,0.1902,0.1903,0.1891,0.1897,0.189,0.1904,0.1898,0.1899,0.1899,0,0.1469,0.1501,0.1544,0.1588,0.1601,0.1623,0.1661,0.1687,0.1724,0.174,0.1767,0.1788,0.182,0.1822,0.1867,0.1857,0.1875,0.1892,0.1894,0.1899,0.1901,0.1903,0.191,0.1912,0.1903,0.1903,0.1903,0,0.1459,0.1513,0.1545,0.1563,0.1615,0.163,0.1652,0.1688,0.171,0.1743,0.1758,0.1794,0.1815,0.1843,0.1873,0.1872,0.1915,0.192,0.193,0.1929,0.1939,0.1938,0.1948,0.1949,0.1949,0.1949,0.1949,0,0.1471,0.1496,0.1541,0.1561,0.1591,0.1623,0.1651,0.1675,0.1707,0.1733,0.1758,0.1782,0.1821,0.185,0.1874,0.1907,0.1916,0.1931,0.1937,0.1929,0.1927,0.1942,0.1942,0.195,0.195,0.195,0.195,0,0.1464,0.1496,0.1533,0.1579,0.1591,0.161,0.165,0.167,0.1695,0.1728,0.1737,0.1777,0.1812,0.1845,0.1892,0.1908,0.1942,0.195,0.1929,0.1933,0.1941,0.194,0.1962,0.1967,0.1964,0.1964,0.1964,0,0.147,0.149,0.1538,0.1556,0.1578,0.1608,0.163,0.1662,0.1684,0.1727,0.1743,0.1779,0.181,0.1865,0.1899,0.1935,0.1944,0.1949,0.195,0.1941,0.1945,0.1943,0.1945,0.1949,0.1949,0.1949,0.1948,0,0.1477,0.1492,0.1522,0.1558,0.1583,0.1613,0.1643,0.1657,0.1696,0.1719,0.1755,0.1779,0.1826,0.1862,0.1902,0.1926,0.1944,0.1948,0.1952,0.1944,0.1932,0.1939,0.1928,0.1947,0.1948,0.1948,0.1948,0.1948,0.1478,0.1496,0.1533,0.1566,0.1592,0.162,0.1642,0.1669,0.1699,0.174,0.1758,0.1794,0.183,0.1885,0.1908,0.1938,0.1942,0.1948,0.195,0.1951,0.1949,0.1926,0.1945,0.1945,0.1945,0.1945,0.1945,0,0.1486,0.1511,0.1541,0.1583,0.1609,0.1622,0.1657,0.1678,0.1709,0.1741,0.1771,0.1812,0.1847,0.1883,0.192,0.1936,0.1945,0.1945,0.1944,0.195,0.1943,0.1936,0.1937,0.1937,0.1937,0.1937,0.1937,0.1937,0.1494,0.1527,0.1545,0.1592,0.1616,0.1651,0.167,0.1696,0.1722,0.1766,0.1795,0.1818,0.1852,0.1891,0.1924,0.1934,0.1947,0.1944,0.1956,0.195,0.195,0.195,0.1944,0.1946,0.1946,0.196,0.196,0.196]},{"header":{"parameterUnit":"m.s-1","parameterCategory":1,"la1":30.2991,"la2":30.254,"lo1":-89.0895,"lo2":-89.0444,"dy":0.0017,"dx":0.0017,"nx":28,"ny":28,"refTime":"2025-03-26T03:00:00:Z","depth":0,"parameterNumber":3,"parameterNumberName":"V-component_of_WINDS"},"data":[0,0,0,0,0,0,0,0,0,0,0,0,0,0,0,0,0,0,0,0,0,0,0,0,0,0,0,0,0,0,0,0,0,0,0,0,0,0,0,0,0,0,0,0,0,0,0,0,0,0,0,0,0,0,0,0,0,0,3.4676,3.4676,0,3.4673,3.4672,3.4672,3.4674,3.4674,3.4674,3.4674,3.4667,3.4667,3.4667,0,0,0,0,0,0,0,0,0,0,0,0,0,3.4679,3.4679,3.4676,3.4676,3.4676,3.4673,3.4672,3.4672,3.4674,3.4674,3.4674,3.4674,3.4668,3.4667,3.4667,0,0,0,0,0,0,0,0,0,0,0,0,0,3.4677,3.4679,3.4676,3.4677,3.4677,3.4673,3.4672,3.4672,3.4674,3.4674,3.4674,3.4674,3.4668,3.4667,3.4667,3.4662,0,0,3.4666,3.4665,0,0,0,0,0,0,0,0,3.4677,3.4677,3.4677,3.4677,3.4677,3.4674,3.4671,3.4669,3.4674,3.4675,3.4674,3.4674,3.4669,3.4669,3.4668,3.4661,3.4661,3.4666,3.4665,3.4665,3.4665,0,0,0,0,0,0,0,3.4677,3.4677,3.4675,3.4677,3.4677,3.4675,3.4675,3.4671,3.4671,3.4675,3.4675,3.4674,3.4669,3.4668,3.4667,3.4661,3.4666,3.4665,3.4665,3.4665,3.4645,3.4645,0,0,0,0,0,0,3.4678,3.4677,3.4675,3.4675,3.4677,3.4675,3.4675,3.4675,3.4671,3.4671,3.4674,3.4675,3.4669,3.4668,3.4667,3.4658,3.4665,3.4665,3.4665,3.4646,3.4645,3.4645,0,0,0,0,0,0,3.4678,3.4678,3.4675,3.4676,3.4675,3.4675,3.4674,3.4674,3.4673,3.4671,3.4671,3.4673,3.4669,3.4668,3.4662,3.4658,3.4665,3.4664,3.4646,3.4646,3.4645,3.4642,0,0,0,0,0,0,3.4678,3.4678,3.4678,3.4676,3.4675,3.4672,3.4674,3.4674,3.4673,3.4673,3.467,3.467,3.4669,3.4663,3.4662,3.4658,3.4664,3.4646,3.4646,3.4645,3.4643,3.4642,3.4641,0,0,0,0,0,3.4678,3.4677,3.4678,3.4677,3.4675,3.4672,3.4671,3.4671,3.4673,3.4671,3.4669,3.467,3.4659,3.4662,3.4661,3.4657,3.4647,3.4646,3.4645,3.4643,3.4642,3.4641,0,0,0,0,0,0,3.4679,3.4677,3.4678,3.4676,3.4674,3.4672,3.467,3.467,3.4667,3.4668,3.4666,3.4666,3.4659,3.4658,3.4661,3.4649,3.4653,3.4652,3.4651,3.465,3.4649,3.465,3.4664,0,0,0,0,0,3.4678,3.4677,3.4675,3.4674,3.4673,3.4672,3.467,3.467,3.4667,3.4666,3.4664,3.466,3.4655,3.4653,3.4649,3.4642,3.464,3.4638,3.4637,3.4637,3.4636,3.4629,3.4627,3.4643,3.4643,3.4643,0,0,3.4678,3.4677,3.4677,3.4674,3.4672,3.4669,3.4671,3.4668,3.4665,3.4666,3.466,3.4657,3.4653,3.4646,3.4643,3.4644,3.4631,3.4636,3.4635,3.4635,3.4628,3.4627,3.4625,3.4642,3.4643,3.4643,0,0,3.4676,3.4676,3.4674,3.4671,3.4668,3.4667,3.4666,3.4663,3.4661,3.4656,3.4655,3.465,3.4643,3.4639,3.4636,3.4627,3.4627,3.4626,3.4621,3.4615,3.4613,3.4612,3.4607,3.4605,3.4625,3.4625,3.4625,0,3.4676,3.4673,3.4672,3.4668,3.4666,3.4666,3.4661,3.4659,3.4654,3.4652,3.4653,3.4642,3.4639,3.463,3.4627,3.4625,3.4622,3.4626,3.4614,3.4613,3.4611,3.4606,3.4605,3.4625,3.4625,3.4625,3.4625,0,3.4671,3.4668,3.4666,3.4662,3.4659,3.4655,3.4652,3.4648,3.4647,3.4644,3.4636,3.4632,3.4626,3.4623,3.4623,3.4612,3.4613,3.4614,3.4617,3.461,3.4605,3.4603,3.4624,3.4624,3.4624,3.4624,0,0,3.4672,3.4664,3.4663,3.466,3.4655,3.4651,3.4645,3.4639,3.4635,3.4631,3.4625,3.4617,3.4617,3.4613,3.4611,3.4605,3.4595,3.4606,3.4606,3.4603,3.4581,3.458,3.4578,3.4595,3.4594,3.4594,3.4581,0,3.4668,3.4659,3.4657,3.4649,3.4644,3.4642,3.4636,3.4631,3.4627,3.4621,3.4617,3.461,3.4612,3.4609,3.4603,3.4598,3.4591,3.4599,3.4587,3.4587,3.4588,3.4576,3.4575,3.4563,3.4579,3.4579,3.4579,0,3.4663,3.4658,3.465,3.4642,3.4639,3.4635,3.4627,3.4622,3.4615,3.4612,3.4606,3.4604,3.4595,3.4598,3.4584,3.459,3.4584,3.458,3.458,3.4578,3.4582,3.4573,3.456,3.4557,3.4576,3.4576,3.4576,0,3.4662,3.4653,3.4646,3.4643,3.4634,3.463,3.4626,3.4619,3.4614,3.4606,3.4603,3.4594,3.4589,3.4581,3.4575,3.4578,3.4561,3.4564,3.4557,3.4557,3.4554,3.4554,3.4539,3.4551,3.4551,3.4552,3.4552,0,3.4658,3.4652,3.4645,3.4641,3.4633,3.4628,3.462,3.4616,3.4609,3.4601,3.4598,3.4591,3.4584,3.4576,3.4571,3.4559,3.4557,3.4553,3.4552,3.4553,3.4553,3.455,3.455,3.4551,3.4551,3.4551,3.4551,0,3.4656,3.4651,3.4643,3.4634,3.4631,3.4626,3.4618,3.4612,3.4607,3.4597,3.4595,3.4586,3.4576,3.4569,3.4555,3.4552,3.4538,3.4537,3.4541,3.454,3.4533,3.4533,3.4514,3.451,3.4526,3.4526,3.4526,0,3.4654,3.4649,3.4639,3.4634,3.463,3.4622,3.4617,3.4611,3.4605,3.4594,3.4588,3.4577,3.4568,3.4551,3.4542,3.4531,3.4529,3.4523,3.4528,3.4528,3.4528,3.4528,3.4526,3.4523,3.4522,3.4522,3.4522,0,3.4649,3.4646,3.4639,3.463,3.4623,3.4616,3.4608,3.4603,3.4596,3.4588,3.4577,3.457,3.4555,3.4543,3.453,3.4524,3.4521,3.452,3.4518,3.4519,3.4521,3.4518,3.4538,3.4521,3.4521,3.4521,3.4521,3.4521,3.4646,3.4641,3.4632,3.4623,3.4616,3.4608,3.4601,3.4595,3.4585,3.4573,3.4569,3.4557,3.4546,3.4528,3.4521,3.451,3.451,3.4507,3.4506,3.4506,3.4505,3.4523,3.4507,3.4507,3.4507,3.4507,3.4507,0,3.4641,3.4634,3.4626,3.4614,3.4606,3.4604,3.4594,3.4587,3.4576,3.4567,3.4557,3.4542,3.453,3.4519,3.4505,3.4498,3.4496,3.4495,3.4495,3.4493,3.4506,3.4509,3.4496,3.4496,3.4496,3.4496,3.4496,3.4496,3.4637,3.4627,3.4622,3.4607,3.46,3.4588,3.4582,3.4573,3.4565,3.4549,3.4539,3.4532,3.452,3.4505,3.4493,3.449,3.4484,3.4483,3.4479,3.4491,3.4493,3.4494,3.4496,3.4482,3.4482,3.4468,3.4468,3.4468]}]]